GFSGL_850_spd_336.txt.gz
Wind_Speed
10 9 9 8 5 3 2 6 7 7 7 5 5 6 6 7 8 8 9 9 10 10 11 10 9 10 9 9 10 12 14 16 23 28 28 29 32 32 32 34 31 33 30
9 8 7 6 4 4 2 3 5 6 6 4 6 7 6 7 8 9 8 8 10 10 10 11 10 10 11 11 12 15 16 18 23 30 30 31 33 34 35 34 31 30 33
6 4 4 4 4 3 4 7 7 6 6 5 6 6 5 6 7 7 7 9 9 9 10 10 10 10 11 12 14 16 17 20 23 28 31 29 31 33 36 33 34 33 30
6 7 5 4 5 5 5 6 7 7 7 5 4 4 3 3 2 3 5 6 6 7 8 9 10 12 13 15 16 17 19 23 24 27 30 31 31 30 31 35 42 35 37
9 8 8 7 7 4 4 6 8 7 6 5 4 3 2 2 1 3 5 6 7 9 9 11 12 17 21 23 19 18 21 24 26 29 32 33 32 32 34 35 40 41 44
8 8 8 11 9 9 7 6 6 8 7 5 5 4 5 5 8 7 9 9 10 11 12 13 14 16 14 22 21 21 23 25 28 30 33 35 37 34 35 38 37 43 48
9 9 8 7 7 7 6 8 8 9 7 6 6 8 9 9 11 11 13 14 13 13 15 16 16 17 20 18 21 24 24 25 27 29 32 33 39 35 37 39 41 45 48
7 8 7 7 8 7 8 9 9 9 8 8 8 10 11 11 14 14 16 18 16 15 17 18 19 19 20 23 25 26 25 26 26 26 30 37 39 38 36 38 40 44 49
7 6 7 8 8 7 7 7 8 9 10 10 10 11 13 14 17 15 18 19 16 17 18 19 20 23 24 29 32 29 29 29 26 31 34 40 40 35 32 33 38 42 49
7 7 7 7 8 7 7 8 10 11 11 10 12 13 16 18 19 21 21 19 17 19 19 20 22 25 27 32 33 30 32 31 31 35 31 35 31 34 31 31 35 43 49
6 6 6 6 7 7 9 10 11 11 12 13 14 15 16 16 17 22 21 20 17 19 21 21 21 27 32 34 34 31 28 34 33 26 31 34 31 30 30 31 37 40 49
6 6 5 7 8 9 12 13 14 15 16 16 18 19 18 17 17 21 19 15 19 21 18 21 23 28 33 32 27 25 33 30 24 28 34 35 34 35 36 37 39 41 44
8 9 11 11 14 15 17 18 19 19 20 20 20 23 23 22 27 21 19 21 17 19 19 23 27 29 28 26 25 29 27 24 26 31 33 35 33 39 39 37 39 43 44
12 14 15 17 18 18 18 19 21 23 24 22 20 22 22 21 22 14 10 11 14 17 20 22 27 23 23 26 25 24 24 24 26 29 29 34 35 38 40 36 41 47 51
17 17 18 18 18 16 17 18 21 21 22 17 13 9 13 15 11 11 14 13 17 19 26 23 21 20 22 23 23 23 23 24 25 26 30 32 35 40 39 37 38 45 49
18 18 19 19 17 16 15 16 20 23 13 14 12 10 9 10 7 9 14 19 22 24 22 17 18 20 21 22 23 23 23 23 24 27 27 30 35 40 39 37 34 41 47
15 15 14 13 12 11 11 9 7 9 9 9 8 6 4 6 11 14 17 20 20 16 15 17 18 19 21 21 22 22 23 23 24 26 27 27 30 35 37 34 34 37 44
11 12 11 11 12 12 9 7 4 5 5 6 10 9 11 12 13 15 16 18 13 12 15 17 18 19 20 21 21 22 23 23 23 25 26 26 28 30 35 34 34 37 41
8 10 11 12 10 7 4 4 4 3 5 6 7 10 11 12 12 11 13 10 13 14 15 17 18 19 20 21 21 21 22 22 24 24 25 26 26 29 31 30 31 33 36
9 13 8 7 6 4 5 4 5 5 6 7 8 7 7 10 10 10 11 13 14 15 17 18 19 20 21 20 20 21 21 22 22 23 23 25 25 28 28 27 27 29 31
7 7 8 6 5 6 7 7 6 6 7 8 7 9 11 11 9 10 12 13 15 16 18 19 20 20 20 20 20 20 21 21 21 22 22 24 26 28 25 24 23 22 24
7 7 6 7 9 9 8 9 9 8 8 8 8 10 14 10 9 13 14 14 15 16 18 19 20 20 20 19 19 20 20 21 21 21 22 24 25 26 24 23 21 20 19
7 8 9 9 9 10 10 10 10 10 9 10 10 11 12 13 13 14 15 15 16 17 18 19 20 21 19 19 18 18 19 20 20 21 23 23 25 24 23 21 20 18 16
9 9 10 11 12 12 12 12 13 14 13 12 12 12 14 15 15 15 16 16 17 17 18 19 20 21 20 19 18 18 19 22 24 23 21 27 25 23 20 19 17 16 15
11 11 12 13 14 15 16 17 17 16 16 16 15 15 15 15 16 15 18 17 18 17 18 20 21 19 19 20 20 19 21 25 25 25 28 27 24 20 16 16 15 14 13
15 16 16 17 18 20 21 22 21 20 19 17 16 16 16 18 17 19 17 16 17 18 20 21 19 19 19 19 18 22 25 25 25 27 28 26 19 16 14 14 14 14 11

GFSGL_850_spd_339.txt.gz
Wind_Speed
11 10 9 8 7 7 7 8 8 9 7 6 4 3 4 4 5 5 6 5 5 5 6 6 7 9 8 7 8 8 9 12 17 21 23 26 31 31 34 34 34 32 27
15 13 9 7 6 5 7 9 9 9 7 7 6 5 4 4 5 4 6 4 4 4 5 6 6 7 9 10 11 12 12 14 18 25 26 27 29 31 32 37 36 30 31
8 4 4 3 1 2 4 8 9 7 6 6 6 5 5 4 2 3 3 3 2 3 4 5 7 8 10 10 12 12 14 16 19 22 27 27 29 29 32 36 34 34 33
10 10 6 7 7 4 3 7 5 6 6 5 5 5 4 3 4 3 0 2 3 5 6 7 7 8 11 13 13 13 15 19 20 24 26 28 28 29 29 32 38 36 40
6 5 3 1 3 7 4 7 8 10 10 9 7 6 6 6 4 3 4 4 5 7 9 9 9 14 17 17 22 16 17 20 22 25 27 29 29 31 32 33 37 39 45
6 8 5 7 4 2 6 6 7 9 7 7 9 8 7 5 12 12 8 8 8 10 10 13 14 15 11 19 20 22 26 24 25 27 29 31 33 31 34 36 39 42 47
7 5 5 5 13 9 8 8 8 10 9 9 9 9 9 10 15 12 11 13 15 12 14 15 16 15 20 16 17 21 23 24 26 29 33 33 34 31 37 42 41 44 50
7 7 8 8 7 8 8 9 10 10 11 11 11 10 11 12 15 17 15 16 17 15 16 16 19 20 20 23 23 25 27 25 26 27 31 31 33 40 34 40 40 45 46
7 8 8 8 8 8 9 9 10 11 11 12 11 12 13 13 16 19 20 16 17 18 20 21 21 22 23 26 29 27 30 31 28 28 32 39 34 31 38 36 41 43 47
7 6 6 7 8 8 9 10 10 11 12 12 13 14 16 17 17 20 20 16 18 20 20 20 20 22 23 26 32 34 34 31 28 32 32 27 26 32 36 32 35 40 47
6 6 7 7 7 8 10 12 13 14 14 16 16 17 18 18 17 18 20 21 20 19 18 20 19 25 27 31 36 35 24 29 30 29 27 26 29 37 34 37 38 45 47
7 7 6 7 8 10 12 13 13 15 16 18 19 20 19 17 18 22 19 24 21 20 19 19 19 26 31 33 26 24 28 29 27 28 30 30 32 37 39 41 42 45 40
7 7 8 10 12 13 15 16 17 18 19 22 22 24 24 23 20 23 24 21 16 20 16 18 22 26 30 27 24 27 26 24 27 29 31 31 32 36 40 37 45 44 42
9 11 11 14 16 17 17 16 17 19 22 20 22 23 18 13 14 17 15 9 10 14 16 17 24 29 22 24 22 23 23 24 26 27 30 30 33 35 35 37 45 43 44
13 15 15 16 19 18 18 17 17 20 21 24 24 23 20 13 14 15 12 11 14 17 25 23 20 18 19 21 21 22 23 23 24 26 28 31 31 34 34 40 45 41 43
16 15 18 18 19 14 14 13 12 15 9 10 11 10 6 8 11 9 11 15 19 20 20 17 15 19 21 22 23 23 23 23 24 25 27 28 31 31 35 45 44 40 41
16 16 16 17 14 12 10 10 11 13 8 10 8 7 9 10 13 14 16 18 18 10 14 16 18 20 21 22 22 23 23 23 23 24 26 28 29 30 34 38 44 40 41
12 13 12 12 11 10 11 12 8 7 9 11 10 10 13 12 14 12 11 15 11 12 12 17 19 20 21 22 22 23 23 23 23 24 25 26 27 29 31 36 41 40 40
11 10 9 10 11 12 8 7 7 8 7 8 7 11 12 12 16 12 11 13 10 15 16 17 19 20 21 22 22 22 22 23 24 24 24 25 26 28 30 34 38 37 37
10 13 14 8 9 8 9 8 9 8 9 9 10 9 8 7 12 14 14 12 16 17 18 19 20 20 21 22 22 22 22 22 23 23 23 24 25 27 28 34 34 33 34
9 10 13 10 10 9 9 11 11 11 11 11 11 12 14 13 15 11 12 14 16 17 18 18 20 20 21 21 21 21 21 22 22 22 23 23 25 27 29 31 29 29 28
10 10 11 11 10 13 13 13 14 14 14 13 12 14 15 13 10 11 14 15 16 17 18 19 20 20 20 21 21 21 21 21 21 21 22 24 24 26 30 28 26 26 26
11 12 13 14 14 15 15 16 17 18 17 16 15 15 16 12 14 16 16 16 17 19 18 19 19 20 20 20 20 19 20 20 19 19 25 24 24 27 26 25 24 23 24
13 14 15 16 17 19 18 19 19 21 22 21 20 19 17 17 18 18 18 17 18 17 17 19 20 20 21 21 19 18 20 24 28 26 29 28 27 26 23 21 20 20 21
14 15 17 18 20 21 23 24 25 25 25 23 22 21 16 16 17 16 15 14 16 19 18 18 20 21 21 21 21 19 24 25 28 30 28 31 30 25 19 18 18 19 17
17 18 20 22 23 25 27 29 28 28 26 26 26 23 17 16 18 17 19 18 18 17 18 19 20 21 21 20 20 21 25 30 31 26 30 31 27 20 17 18 17 16 15

GFSGL_850_spd_342.txt.gz
Wind_Speed
14 14 14 12 11 9 10 10 9 9 7 5 5 5 6 6 8 7 5 5 3 4 4 4 4 4 3 4 4 5 6 9 17 22 23 26 27 26 28 29 29 32 35
21 20 18 11 7 13 14 13 11 8 7 5 6 6 5 5 6 7 7 3 3 3 5 5 5 5 6 4 7 7 8 11 14 23 26 27 27 28 30 31 33 29 29
17 12 9 8 7 7 9 10 11 12 12 11 11 8 7 5 6 6 5 2 2 4 4 4 4 5 6 11 10 11 9 12 18 18 25 24 25 28 30 30 32 39 33
11 8 7 6 5 5 5 6 7 7 7 10 9 7 5 4 2 2 3 2 5 5 9 9 6 7 11 16 13 20 14 20 20 25 25 25 25 28 28 34 34 41 46
10 9 7 4 7 9 7 11 11 8 6 3 2 4 3 4 5 7 10 8 8 8 11 11 9 13 14 16 17 20 21 22 26 27 28 29 29 32 32 31 37 44 52
11 11 7 7 4 3 2 1 9 11 11 13 11 8 12 10 7 13 15 12 10 11 13 11 13 17 17 15 20 18 21 26 28 29 31 31 34 31 31 35 42 45 47
9 7 9 9 8 5 5 8 8 5 5 7 8 10 9 8 9 13 15 13 14 15 16 13 13 13 16 23 25 23 29 28 29 28 35 33 35 36 35 43 43 41 43
7 7 4 4 6 5 9 9 6 4 8 11 10 9 11 14 13 14 15 17 18 20 14 17 19 20 20 24 23 29 30 30 29 34 37 34 36 37 40 39 36 42 44
8 9 9 11 8 8 8 9 8 9 10 10 10 11 13 15 12 16 18 20 21 17 19 19 22 23 25 24 26 30 30 35 40 32 27 32 29 22 23 27 33 42 43
8 9 8 9 8 9 9 10 11 13 13 13 15 16 15 17 17 19 21 22 21 19 21 24 21 21 24 26 23 28 36 40 26 28 29 25 26 26 25 26 35 37 42
6 6 7 7 9 10 12 12 11 13 14 15 18 19 20 21 21 23 22 22 23 25 26 19 19 21 23 23 28 34 35 25 28 30 31 31 31 25 26 31 37 37 41
7 6 6 8 8 9 10 11 12 14 15 16 18 21 21 21 23 25 23 21 23 25 27 22 17 22 26 31 32 22 21 26 29 29 30 27 33 31 28 38 45 40 35
6 6 7 7 9 11 13 14 16 17 17 18 19 20 21 21 23 18 12 15 19 19 13 11 19 25 28 31 17 21 22 25 24 24 31 32 28 30 36 38 37 35 48
7 9 10 12 12 12 15 17 19 19 18 18 20 20 23 24 23 23 24 16 8 9 14 18 20 27 23 17 20 18 17 21 26 28 27 27 31 37 32 36 35 44 54
8 9 13 16 18 17 16 19 18 15 15 13 16 18 14 12 11 13 13 11 13 15 21 25 25 14 15 18 18 20 22 23 25 25 25 33 31 32 37 34 37 40 47
15 15 16 16 17 19 15 14 14 12 13 13 11 9 9 10 12 12 13 13 14 15 16 16 12 14 18 18 21 21 22 23 24 27 29 25 33 34 34 36 35 39 47
14 18 15 12 13 12 10 11 11 11 13 10 9 6 7 11 10 12 10 11 12 8 11 12 12 17 18 19 19 20 22 23 26 25 23 32 30 30 34 34 35 39 52
5 10 13 9 11 14 12 12 9 11 13 12 12 11 11 10 8 8 8 10 11 9 13 14 15 18 18 19 20 21 22 25 25 23 28 27 28 29 31 33 35 41 48
10 12 11 9 11 10 11 14 11 13 12 12 10 13 14 9 8 7 11 13 9 8 9 15 17 18 19 20 21 22 22 22 22 25 26 25 27 27 32 32 39 47 40
11 13 16 17 11 12 13 12 15 14 16 13 13 16 11 10 7 11 16 16 14 14 15 16 17 19 20 21 22 21 20 21 23 25 25 24 22 29 31 33 43 40 37
11 12 11 10 12 13 14 13 17 18 17 13 15 15 16 13 12 15 14 12 15 15 16 16 16 18 20 20 21 20 20 21 23 23 20 22 28 32 29 37 40 34 32
10 12 13 13 12 14 17 18 17 22 18 17 19 20 21 22 21 15 13 15 15 14 15 18 18 18 19 20 21 20 21 21 21 20 25 31 37 35 32 38 33 29 29
12 13 14 15 17 18 20 20 20 23 24 23 22 23 27 23 17 15 14 15 15 14 19 20 20 19 18 19 20 20 19 21 22 25 32 35 37 34 36 32 27 26 28
14 14 16 18 19 20 21 21 22 25 27 29 26 24 23 21 18 21 22 23 21 23 20 22 17 16 18 20 19 17 20 25 27 29 32 36 35 35 32 24 22 24 25
14 14 15 17 20 22 23 25 24 26 31 29 29 26 30 27 23 20 20 20 18 16 17 19 15 17 19 20 20 21 21 24 28 31 34 31 32 33 27 20 21 21 21
17 18 18 19 22 22 21 23 25 27 30 33 37 40 38 28 25 27 23 24 18 14 15 16 16 17 18 18 20 22 23 25 30 32 29 34 32 31 23 18 17 18 19

GFSGL_850_spd_345.txt.gz
Wind_Speed
23 19 20 20 20 17 16 13 11 8 5 6 7 7 7 10 9 5 6 6 7 6 6 5 5 5 2 2 2 4 4 7 13 16 18 20 21 21 20 21 22 23 25
24 17 12 12 14 15 16 13 10 10 10 10 9 8 7 9 11 8 5 5 6 5 4 3 2 2 1 5 6 8 10 10 16 22 23 25 24 24 25 27 27 27 30
19 15 13 9 13 14 14 15 15 14 13 11 12 10 8 9 10 10 7 6 5 1 2 3 4 5 5 7 12 10 15 13 16 22 27 27 28 28 31 31 32 30 29
19 13 7 7 8 11 12 14 13 12 12 11 11 9 7 7 6 6 4 3 2 2 6 7 8 7 8 15 16 16 21 21 23 26 29 32 35 37 37 37 37 35 43
9 5 4 5 5 6 7 9 11 10 9 8 8 8 8 7 4 4 7 5 4 6 7 8 8 8 11 14 17 17 23 28 28 31 33 35 38 41 39 35 38 45 47
2 3 7 8 6 4 9 9 8 10 12 13 11 11 14 12 13 11 12 9 11 10 10 12 12 13 13 14 16 22 24 27 29 32 32 37 41 40 40 39 41 46 54
7 8 7 7 6 4 3 2 3 5 7 7 11 10 8 5 2 4 8 12 13 13 13 13 9 10 12 15 20 23 26 25 27 25 34 38 40 35 35 40 42 42 38
8 3 4 6 1 3 6 1 1 1 2 4 5 5 6 7 7 8 10 13 16 16 16 13 13 15 17 19 21 24 26 27 28 30 37 35 28 26 26 29 31 36 41
6 5 4 2 4 4 2 2 2 3 3 4 4 5 8 9 8 10 12 17 20 21 20 18 18 21 24 23 22 24 26 29 29 35 25 23 24 25 25 29 34 35 40
8 5 6 5 2 3 1 3 6 8 8 8 6 7 10 13 13 15 19 22 24 25 23 21 21 26 20 22 23 25 27 31 33 21 23 24 25 25 24 27 31 30 35
6 8 6 7 5 4 5 6 8 11 11 13 13 14 17 19 20 21 23 25 27 26 25 26 26 24 21 21 22 27 32 32 23 25 27 28 29 29 31 28 23 34 41
9 7 7 7 7 6 9 10 13 13 14 14 14 17 17 18 18 21 22 22 27 25 26 23 18 18 21 25 27 28 24 20 25 25 27 28 31 27 20 29 36 34 39
9 7 9 9 7 7 11 13 13 14 16 16 16 17 18 18 18 19 18 18 20 21 23 15 16 18 21 24 24 14 18 18 17 20 24 29 22 27 36 39 36 39 39
12 11 11 12 10 11 12 14 17 17 17 17 17 17 15 16 16 15 15 14 13 15 15 15 17 21 26 19 13 10 12 18 20 23 26 27 31 34 34 37 33 40 42
11 10 11 11 10 12 15 17 18 19 17 16 14 14 14 13 9 8 8 9 10 13 16 19 19 17 6 8 9 17 23 23 22 23 27 29 27 31 39 32 34 38 40
10 10 11 13 15 15 16 16 15 14 14 12 14 12 7 5 7 7 8 8 9 12 12 7 8 6 10 11 14 19 19 20 21 25 27 24 29 34 32 33 35 38 44
14 16 16 15 13 12 11 12 13 11 8 12 9 9 9 7 7 9 6 2 8 11 5 6 9 10 13 14 16 18 20 23 25 24 21 25 29 30 30 33 39 42 47
14 9 8 10 7 10 14 14 13 13 15 10 11 14 14 14 11 9 7 7 6 7 10 10 13 12 10 13 19 20 23 23 20 18 24 28 28 26 30 36 44 43 49
14 13 11 12 13 14 13 13 16 18 18 16 15 17 17 19 16 14 10 11 11 11 9 12 14 14 15 19 19 21 21 18 21 23 29 25 25 28 34 41 47 45 46
12 12 14 17 17 17 16 15 19 17 17 19 23 21 20 22 22 20 17 17 17 13 13 14 13 12 15 17 19 18 18 20 24 26 23 25 28 33 39 44 42 45 40
17 17 14 14 15 13 11 19 13 14 16 19 23 24 22 22 23 23 23 21 16 12 13 11 15 19 22 24 21 19 23 24 22 22 25 27 30 36 40 41 40 41 32
15 14 15 14 14 16 13 12 16 23 22 21 21 25 30 29 30 28 27 24 19 19 18 24 27 28 25 28 19 18 22 23 24 26 27 29 34 38 40 37 39 33 30
18 16 17 16 15 17 21 20 22 23 23 23 26 29 30 28 29 33 32 28 24 27 25 24 27 25 26 16 13 18 22 22 24 26 30 32 35 37 36 37 36 29 28
20 20 20 20 23 22 18 19 21 22 23 25 25 25 25 28 29 30 31 30 32 30 26 24 24 21 21 11 14 18 18 23 25 25 28 32 34 34 36 34 32 25 24
15 15 14 14 12 14 17 22 25 27 26 25 23 24 29 32 35 32 27 29 28 27 25 25 21 16 13 13 19 19 20 23 25 25 29 32 32 36 32 32 28 21 21
17 19 19 19 21 24 26 26 26 26 26 28 29 31 31 31 29 20 27 19 16 21 19 11 7 7 12 16 18 20 22 23 26 29 31 32 34 32 31 30 22 19 20